TimeCDT,TemperatureF,Dew PointF,Humidity,Sea Level PressureIn,VisibilityMPH,Wind Direction,Wind SpeedMPH,Gust SpeedMPH,PrecipitationIn,Events,Conditions,WindDirDegrees,DateUTC
12:23 AM,39.2,37.4,93,29.56,3.0,SE,4.6,-,0.01,,Overcast,140,2013-04-12 05:23:00
12:39 AM,39.2,37.4,93,29.56,2.5,South,3.5,-,0.01,,Overcast,170,2013-04-12 05:39:00
12:53 AM,39.0,37.9,96,29.57,2.5,Calm,Calm,-,0.01,,Overcast,0,2013-04-12 05:53:00
1:19 AM,39.2,37.4,93,29.56,4.0,WSW,8.1,-,N/A,,Overcast,240,2013-04-12 06:19:00
1:35 AM,39.2,37.4,93,29.56,7.0,West,12.7,-,N/A,,Overcast,260,2013-04-12 06:35:00
1:43 AM,39.2,37.4,93,29.55,6.0,West,15.0,-,N/A,,Overcast,260,2013-04-12 06:43:00
1:53 AM,39.0,37.0,93,29.57,9.0,West,12.7,-,N/A,,Overcast,270,2013-04-12 06:53:00
2:24 AM,39.2,35.6,87,29.54,10.0,West,15.0,-,N/A,,Overcast,270,2013-04-12 07:24:00
2:48 AM,39.2,35.6,87,29.54,10.0,West,13.8,19.6,N/A,,Overcast,260,2013-04-12 07:48:00
2:53 AM,37.9,35.1,89,29.56,10.0,WSW,12.7,-,N/A,,Overcast,250,2013-04-12 07:53:00
2:57 AM,37.4,35.6,93,29.54,10.0,WSW,11.5,-,N/A,,Overcast,250,2013-04-12 07:57:00
3:39 AM,37.4,35.6,93,29.54,10.0,WSW,13.8,-,N/A,,Overcast,240,2013-04-12 08:39:00
3:53 AM,37.0,34.0,89,29.56,10.0,WSW,13.8,-,N/A,,Overcast,250,2013-04-12 08:53:00
4:53 AM,37.0,33.1,86,29.55,8.0,WSW,11.5,-,N/A,,Overcast,250,2013-04-12 09:53:00
5:53 AM,37.0,33.1,86,29.55,9.0,WSW,12.7,-,N/A,,Overcast,250,2013-04-12 10:53:00
6:53 AM,37.0,33.1,86,29.57,8.0,WSW,11.5,-,N/A,,Overcast,240,2013-04-12 11:53:00
7:53 AM,37.0,33.1,86,29.57,6.0,SW,12.7,-,N/A,,Overcast,230,2013-04-12 12:53:00
8:43 AM,37.4,33.8,87,29.56,6.0,WSW,13.8,-,N/A,,Overcast,240,2013-04-12 13:43:00
8:53 AM,37.0,33.1,86,29.59,6.0,SW,13.8,23.0,N/A,,Overcast,230,2013-04-12 13:53:00
9:20 AM,37.4,33.8,87,29.57,4.0,WSW,16.1,-,N/A,,Overcast,240,2013-04-12 14:20:00
9:53 AM,39.0,35.1,86,29.59,5.0,WSW,11.5,-,N/A,,Overcast,240,2013-04-12 14:53:00
10:06 AM,39.2,35.6,87,29.57,8.0,WSW,19.6,24.2,N/A,,Overcast,240,2013-04-12 15:06:00
10:53 AM,39.9,35.1,83,29.60,7.0,WSW,17.3,24.2,N/A,,Overcast,250,2013-04-12 15:53:00
11:53 AM,41.0,35.1,79,29.62,7.0,WSW,12.7,-,0.00,Rain,Light Rain,250,2013-04-12 16:53:00
12:53 PM,43.0,36.0,76,29.62,10.0,WSW,18.4,24.2,0.01,,Overcast,250,2013-04-12 17:53:00
1:53 PM,43.0,36.0,76,29.64,10.0,West,13.8,-,N/A,,Overcast,260,2013-04-12 18:53:00
2:53 PM,43.0,36.0,76,29.66,10.0,West,13.8,24.2,N/A,,Overcast,260,2013-04-12 19:53:00
3:53 PM,44.1,37.0,76,29.68,10.0,West,17.3,21.9,N/A,,Overcast,270,2013-04-12 20:53:00
4:53 PM,42.1,36.0,79,29.70,10.0,West,12.7,-,0.00,,Overcast,280,2013-04-12 21:53:00
5:53 PM,41.0,36.0,82,29.73,4.0,West,16.1,24.2,0.00,Rain,Light Rain,270,2013-04-12 22:53:00
6:00 PM,39.2,35.6,87,29.72,4.0,West,15.0,25.3,0.00,Rain,Light Rain,270,2013-04-12 23:00:00
6:53 PM,39.0,34.0,82,29.76,10.0,West,16.1,26.5,0.00,,Overcast,260,2013-04-12 23:53:00
7:00 PM,39.2,33.8,81,29.74,10.0,West,15.0,-,N/A,,Overcast,270,2013-04-13 00:00:00
7:53 PM,37.9,30.0,73,29.78,10.0,West,15.0,23.0,N/A,,Overcast,260,2013-04-13 00:53:00
8:53 PM,37.0,28.9,73,29.80,10.0,West,15.0,20.7,N/A,,Overcast,270,2013-04-13 01:53:00
9:00 PM,37.4,28.4,70,29.78,10.0,West,13.8,20.7,N/A,,Overcast,270,2013-04-13 02:00:00
9:53 PM,37.0,28.0,70,29.82,10.0,West,12.7,-,N/A,,Overcast,270,2013-04-13 02:53:00
10:53 PM,36.0,27.0,70,29.82,10.0,West,10.4,-,N/A,,Overcast,270,2013-04-13 03:53:00
11:53 PM,36.0,28.0,73,29.83,10.0,West,11.5,-,N/A,,Overcast,260,2013-04-13 04:53:00